BTape's sites:

title views votes rating creation
?fad 1,879 29 (3.55)  2010-06-06
?Hermey really doesn't like to make toys 10,857 211 (3.81)  2007-12-28
?homUffculus 6,830 160 (3.33)  2007-11-22
?Milla's Booth is Popular 12,168 233 (3.61)  2007-08-20
?Tom Arnold Lost His Way in the Peruvian Jungle 7,333 226 (3.83)  2007-08-15
?Hum(?x)n 6,422 162 (3.78)  2007-08-08
?happy return 3,080 128 (3.19)  2007-07-09
?PrintScrn 38,584 757 (3.90)  2007-06-29
?Ron Stewart releases the YTMND Flash Roddie-Lo... 4,929 193 (3.75)  2007-06-27
?UNICORx© (Ask your doctor) 5,464 142 (3.61)  2007-06-26
?The Power of Lightning at your Fingertips! 15,217 502 (3.96)  2007-06-18
?How Outback grills their steaks to perfection 5,594 182 (3.18)  2007-06-15
?These are my ACMES! 11,680 324 (4.03)  2007-06-14
?Arnold loves the iPhone's new features 9,983 286 (3.73)  2007-06-11
?Female Cosby on rocketfrancais 1,690 55 (3.82)  2007-06-11
?Special Edition™ 3,380 97 (3.63)  2007-05-30
?Scarlett Flavored Hotty Juice 2,367 68 (3.81)  2007-05-29
?Jed makes Jed dig a hole to find the buried issue of ... 53,346 725 (3.00)  2007-05-25
?Nicolas Cage is persistant 12,449 305 (4.03)  2007-05-21
?Fruit Killer Jack's Assault on Pear 2,903 77 (3.68)  2007-05-16
?How's the pie? 19,729 407 (4.04)  2007-05-09
?Cosby, Über Ninja Turtle 24,991 486 (4.23)  2007-05-05
?cosbydowners 31,373 720 (3.65)  2007-05-02
?True Journey of a YTMND 15,847 400 (3.94)  2007-04-30
?Come D'oh With Me! 10,830 339 (3.88)  2007-04-29
?! Eyeing Breakfast 3,475 134 (3.78)  2007-04-25
?HEY HEY YOU YOU! 14,409 224 (4.00)  2007-04-23
?Dr. McCainlove or: How I Learned to Stop Worryin... 10,414 335 (4.06)  2007-04-20
?Nacho Monk#?!y 2,129 74 (3.82)  2007-04-17
?P1ZZ4 C04ST3R 10,246 250 (3.84)  2007-04-08
?CONTEST: Jed Light District 1,493 43 (3.91)  2007-04-08
?ChArinold's forgot hNOOOOOs (VOTE 5 P... 980 73 (3.85)  2007-04-07
?300TMND: CONAN IS... NOT A FEATURE, ... 4,711 223 (3.91)  2007-04-06
?GU3SS WH0'S B4CK 18,583 422 (3.97)  2007-04-03
?TCBCR Raiding 4,560 180 (3.84)  2007-04-03
?NOOOller Coaster: Special Edition (fun times mix) 1,669 51 (3.78)  2007-04-03
?S3CR3T P1ZZ4 M4N 15,751 458 (4.17)  2007-04-01
?Banana Bride 8,215 234 (3.69)  2007-03-31
?Aquelairone 1,101 69 (3.90)  2007-03-31
?(nsfw) FORGOTMND: BUWSH AND CARIE (VO... 1,708 76 (3.88)  2007-03-25
?KANE ROBOT MAKES HIS X91TH COMPUTATI... 1,539 78 (3.83)  2007-03-23
?A LITERAL REPRESENTATION OF YOUR DIGIT... 2,052 113 (3.77)  2007-03-23
?TWINKYTTD~ HE WANTS TO EAT TWINKICY... 2,301 63 (3.94)  2007-03-23
?One Day When You Least Expect It 11,750 363 (4.40)  2007-03-22
?Captain Miller's Lollipop Woes 14,106 399 (4.33)  2007-03-18
?Silence of the Loompas 18,559 462 (4.32)  2007-03-16
?(nsfw) Ghorge Lohan DOESNT care about changin... 4,901 69 (3.91)  2007-03-13
?Fyrestorm is Neo 1,778 82 (3.74)  2007-03-12
?It's YTMND 4,158 184 (3.68)  2007-03-12
?Peter Mourns Uncle Ben's Passing 11,245 353 (4.30)  2007-03-12
?Who Put The Jed? 1,341 48 (3.73)  2007-03-11
?(nsfw) Forgetting Poland: VOTE5 in 30 Frames 4,030 229 (3.83)  2007-03-09
?(nsfw) Beans & Forbreadgot 5,171 103 (3.49)  2007-03-09
?BAAAAAng BAAAAAng On The Door BAAA... 9,719 222 (3.48)  2007-03-07
?Epic Syncan Ree Maneuver Rave 3,748 97 (3.87)  2007-03-06
?Dueling Lennies 17,513 349 (4.00)  2007-03-05
?Dennal Plananza 13,393 370 (4.08)  2007-03-04
?Searching for Bubb Rubb Fischer 8,584 246 (3.79)  2007-03-03
?What You See When You Don't Double Ba... 11,541 387 (3.99)  2007-03-02
?H1S P1ZZ4 L1V3S 0N... 15,548 443 (4.22)  2007-02-22
?P1ZZ4 GUY C4N'T ST0P TH3 P1ZZ4 11,427 376 (4.09)  2007-02-20
?C4N'T BR34K P1ZZ4 GUY'S STR1D... 15,220 433 (4.20)  2007-02-19
?P1ZZ4 P13 P4YB4CK PL4N 19,745 381 (4.24)  2007-02-18
?ARTMND: Classical Renaissance Wizard 1,964 118 (3.94)  2007-02-18
?P1ZZ4 GUY G3T5 D0WN 62,499 908 (4.26)  2007-02-16
?Dax Punk: MOMMMM!!! (Remastered) 26,459 404 (3.98)  2007-02-16
?Westley's Secret 15,136 643 (4.49)  2007-02-15
?Mola Ram's Temple of Love 13,657 357 (4.31)  2007-02-13
?Jed on a Mule in Space 10,090 200 (3.39)  2007-02-11
?Dennis Bergkamp Belts Out a Ball Melter 2,522 85 (3.85)  2007-02-11
?KOENTMND: MATLABspace Compilercide 4,581 182 (4.22)  2007-02-09
?Get Off My YTMND 1,533 102 (3.99)  2007-02-08
?We Didn't Start This Jed-Compilation! (glitche... 1,810 96 (3.93)  2007-02-06
?Oh! Ho! Ho! It's McFly! 23,496 562 (4.32)  2007-02-04
?Daft Jitz ft. McFly 5,273 189 (3.96)  2007-02-04
?The End of McFly 2,982 145 (3.88)  2007-02-03
?Ye Olde Tavern's New Talent 1,229 57 (3.86)  2007-02-02
?(nsfw) Did you notice a sign outside my house? 3,706 95 (4.03)  2007-02-02
?MAI MASHEENZ IN THE FUTURE! 4,672 127 (3.72)  2007-01-31
?LOL, MAI MASHEENZ 1,884 68 (3.82)  2007-01-31
?(nsfw) Cpt. Kirkbush Duglass Forgots Polendaes! (... 2,075 114 (3.82)  2007-01-31
?KOENTMND: Did you notice a sign outside my hou... 3,923 156 (3.88)  2007-01-30
?HNOOOOmer Forgots a Polend by 30 Seconds Mi... 3,957 192 (3.82)  2007-01-26
?KOENTMND: Matlab Bonanza 6,465 123 (4.02)  2007-01-25
?KOENTMND: Dr. Billy V. KHAN 16,259 284 (3.23)  2007-01-25
?The PirAAAAAAAnha Plants take over! 7,752 343 (4.00)  2007-01-25
?BUSHZIE SEES HIS FUTURE ......And it's ... 2,340 109 (3.84)  2007-01-25
?KHANTMND: It's Not KHANusual 2,524 122 (3.84)  2007-01-24
?Ray Liotta gets busted at the stop light and freaks o... 13,178 310 (3.29)  2007-01-23
?Face to Face with Salt 3,816 137 (3.80)  2007-01-23
?404 Beautiful House Not Found 2,979 91 (3.79)  2007-01-23
?Jeds Watch Puppet Show 1,950 79 (3.86)  2007-01-23
?Clocktower Chills! 11,028 439 (3.92)  2007-01-19
?MacGyver vs. PC 2,469 140 (3.65)  2007-01-19
?(nsfw) fuckfish is trapped 3,707 171 (3.84)  2007-01-17
?Dirty Dealings! 8,445 285 (3.83)  2007-01-17
?Who Put The Wrong? 12,487 459 (4.03)  2007-01-15
?KHANTMND: Girls Just Wanna Have Khan 2,830 159 (3.88)  2007-01-15
?Lex Luthor > WOOOOOOOOOO 2,960 133 (3.91)  2007-01-15
?JED BONANZA! 1,869 69 (3.68)  2007-01-14
?(nsfw) BIPFT: The Aftermath 40,761 697 (4.49)  2007-01-12
?(nsfw) But I Pope From There 7,081 98 (3.72)  2007-01-12
?Lex Luthor = church choir 45,386 864 (4.44)  2007-01-10
?(nsfw) But I Forgot Poland From There! 2,733 105 (3.91)  2007-01-10
?D0N'T DR34M 1T 13,115 268 (3.83)  2007-01-09
?Jed sees a burning brush like in the bible 1,291 57 (3.65)  2007-01-09
?Jed Brushes Teeth 1,300 46 (3.65)  2007-01-09
?(nsfw) P1ZZ4 GUY G0N' G1V3 1T T0 Y4 30,823 574 (4.26)  2007-01-07
?F.B.I. 10,148 335 (3.99)  2007-01-07
?R3TURN 0F TH3 P1ZZ4 GUY 9,831 155 (4.16)  2007-01-07
?WH4T 1S P1ZZ4? 8,879 148 (4.03)  2007-01-07
?WH3R3 1S MY P1ZZ4? 9,758 134 (3.95)  2007-01-07
?TH4T P1ZZ4 1S F0R D1SPL4Y PURP0S3S 0NLY... 19,989 201 (4.23)  2007-01-07
?Chunk Addresses Congress 51,249 905 (4.62)  2007-01-07
?(nsfw) But I Poop From There 808,424 1,877 (4.49)  2007-01-07
?Ray Liotta Visits The Jed Lounge (Hit F11) 2,259 107 (3.72)  2007-01-04
?P is For(got) Poland (VOTE % PLZ) 7,477 171 (3.84)  2007-01-02
?It's Too Bad She Won't Live... 19,247 395 (3.67)  2007-01-01
?Mortal Kombat: Kirk vs. Gorn 25,843 509 (4.28)  2006-12-31
?(nsfw) How to Oily *ss F*ck a Telemarketer (pleas... 14,153 323 (2.89)  2006-12-28
?Almost There... 19,499 519 (4.32)  2006-12-25
?Forgotten Polish Christmas Carol (VOTE 5) 8,361 324 (3.51)  2006-12-24
?Bill O'Reilly Attacks Rosie O'Donnell 10,070 209 (3.79)  2006-12-23
?I got Lost and all they gave me was this stupid Fish ... 2,550 71 (3.66)  2006-12-23
?The Jeds Dwell On Life (Classy) 2,167 81 (3.91)  2006-12-20
?HIJACKED BY FUTURE KONANE 16,360 384 (3.47)  2006-12-18
?WHAT HAVE YOU DONE? 1,842 103 (3.58)  2006-12-14
?Did you notice a sign outside my house? 3,566 125 (3.60)  2006-12-14
?(nsfw) Red and White Poland Machine (VOTE 5) 119,796 2,363 (2.98)  2006-12-11
?(nsfw) Verizon Fails at Polish Mathematics (30sec) 3,862 91 (3.88)  2006-12-09
?(nsfw) The Inevitable Return of the Great White Po... 4,151 78 (3.85)  2006-12-01
?(nsfw) Pope Kassius has the Triforce 3,785 94 (3.65)  2006-11-25
?Forgot Poland - The Soundtrack (*VOLUME THIRT... 6,966 251 (3.98)  2006-11-09
?KHANTMND: KHAN knows the code (Updated) 5,574 171 (4.09)  2006-10-26
?Always Something There to Remind Me (VOTE 5) 8,192 280 (4.10)  2006-10-25
?(nsfw) KHANTMND: KHAN works it 2,729 65 (3.83)  2006-10-25
?A kitten ate my keyboard! 6,439 101 (3.83)  2006-10-17
?KHANTMND: A-Ha KHAN 6,194 169 (4.14)  2006-10-16
?KHANTMND: Kirk loves KHANbell peppers! 2,043 99 (3.94)  2006-10-16
?(nsfw) Poland vs. Cherry 6,149 216 (3.78)  2006-10-08
?KHANTMND: KHANbot Rock! 6,153 161 (4.05)  2006-10-08
?BAH da BAH BAH BAH, I'm Lovin&#0... 32,531 809 (4.16)  2006-09-17
?(nsfw) Poland in the Moonlight 2,634 105 (3.94)  2006-09-12
?(nsfw) DEW!!!!!N'T FORGET POLAND! 4,317 156 (4.03)  2006-09-12
?Khanaway Poland 7,267 348 (3.52)  2006-09-10
?Poland has you... 23,467 741 (3.95)  2006-09-05
?YOU ARE NOT MY FATHER!!! (extended edition) 5,979 224 (3.94)  2006-09-01
?(nsfw) Bush Falls. Poland Catches. 9,291 297 (3.76)  2006-08-30
?(nsfw) Kerry Mcfly Forgot Bush's Polend 4,647 152 (3.97)  2006-08-27
?(nsfw) Polend Avenue 2,749 125 (3.99)  2006-08-27
?Relax, don't do it. Miss Poland 2006 6,198 308 (3.88)  2006-08-14
?Poland Puppet! 7,606 308 (4.04)  2006-08-05
?BTape's continuous test site 2,749 106 (4.22)  2006-08-01
?I Can't Spell YTMND 5,434 244 (3.94)  2006-07-21
?(nsfw) A MESSAGE FROM BUSH POLAND VO... 2,576 97 (3.80)  2006-07-16
?Lex > Zidane 9,099 177 (3.89)  2006-07-12
?(nsfw) The Poles Attack Materazzi 5,960 118 (3.95)  2006-07-12
?(nsfw) red poland does the lol 2,781 169 (3.81)  2006-07-12
?YTMND Charades! #2 3,504 84 (3.92)  2006-07-05
?Colbert Maxes Out 29,763 604 (4.04)  2006-07-01
?The True Exciting Eon8 Jed End 2,484 69 (3.87)  2006-06-30
?(nsfw) SHOE ON HEAD FORGOT POLAND AN... 6,147 138 (3.87)  2006-06-22
?Your optical illusion has one weakness... 4,140 99 (3.87)  2006-06-20
?Xenu Attempts Escape 22,113 653 (4.25)  2006-06-13
?NEDM is Unstoppable 5,388 242 (3.34)  2006-05-13
?You're Being Watched 1,694 85 (3.96)  2006-05-07
?blackguard 1,707 75 (3.85)  2006-04-29
?charlatan 2,297 66 (3.77)  2006-04-29
?Data Attempts Epic Maneuver 13,461 155 (3.98)  2006-04-16
?Red Ranger Getaway 10,563 134 (4.01)  2006-04-16
?Hypno-Hands Pets Kitten 7,117 207 (4.07)  2006-04-05
?☺╚╬╩♥╬╩╗☻... 3,628 183 (4.00)  2006-04-03
?Chasing Insulin 11,841 560 (4.20)  2006-04-01
?Hypno-Hands Tells Fortunes 1,725 121 (4.03)  2006-04-01
?Doodlepad Arcades 1,014 121 (3.93)  2006-03-31
?{{([|*****|])}} 1,365 123 (3.76)  2006-03-31
?Doodlepad Experience 1,003 120 (3.94)  2006-03-31
?Office Whiteboards 4,510 127 (3.87)  2006-03-31
?Tour De Rompre 1,481 111 (3.85)  2006-03-31
?(nsfw) The Doodlepad Experience 1,950 116 (3.84)  2006-03-31
?Hypno-Hands Strikes Again 4,534 336 (3.97)  2006-03-31
?Ninjas Beyond Fads 2,162 128 (3.99)  2006-03-31
?Hypno-Hands Watches Family Christmas Videos 4,877 207 (4.01)  2006-03-28
?Peter Griffin Goes To An Arcade 22,260 468 (4.09)  2006-03-28
?The Beatles were Suave 5,467 160 (3.99)  2006-03-22
?PTKFGS: Pirates Are So Original 17,057 339 (3.98)  2006-03-17
?Talk About Obsessive Compulsive 10,119 419 (4.01)  2006-03-15
?Phenomena 5,368 226 (4.04)  2006-03-13
?I Saw the Sun! 1,766 112 (3.98)  2006-03-12
?Smartass Pirate 10,857 290 (4.00)  2006-03-10
?Where's Your Bed At? 2,776 137 (3.96)  2006-03-10
?Hey Java! 4,828 137 (3.95)  2006-03-09
?I Want Your Bed 3,843 105 (3.90)  2006-03-09
?Not Gonna Take It 11,664 435 (4.10)  2006-03-09
?You're Just What I Kneaded 7,035 180 (4.02)  2006-03-09
?Time is Running Out 4,107 143 (3.96)  2006-03-09
?It's Under Pressure 2,270 117 (3.94)  2006-03-08
?Ricola! 4,343 153 (3.84)  2006-03-08
?Cold Hard Bitch 11,538 294 (4.02)  2006-03-08
?Ohno! 3,876 137 (3.87)  2006-03-08
?Secret Agent Kramer 5,593 218 (4.00)  2006-03-07
?Everyday is Groundhog Day 6,037 165 (4.01)  2006-03-01
?I met Batman and I got sent to Arkham Asylum (ed... 18,054 292 (4.06)  2006-02-27